CW5022 Weather Reports


time (UTC)temp
C
wind
direction
speed
KPH
gust
KPH
rain 1hr
cm
rain 24hr
cm
rain mn
cm
humidity
%
barometer
mb
20260505091204 12 93 0.0 3.2 0.00 0.00 0.00 86 1011.2
20260505090204 12 98 0.0 1.6 0.00 0.00 0.00 86 1011.1
20260505085704 12 225 1.6 8.0 0.00 0.00 0.00 86 1011.1
20260505085204 12 250 0.0 3.2 0.00 0.00 0.00 86 1011.1
20260505084704 12 248 0.0 3.2 0.00 0.00 0.00 86 1011.0
20260505084204 13 248 0.0 3.2 0.00 0.00 0.00 86 1010.9
20260505083704 13 290 0.0 3.2 0.00 0.00 0.00 86 1010.9
20260505083204 13 264 0.0 3.2 0.00 0.00 0.00 85 1010.9
20260505082704 13 261 1.6 3.2 0.00 0.00 0.00 85 1010.9
20260505082204 13 238 1.6 8.0 0.00 0.00 0.00 85 1010.9
20260505081703 13 129 0.0 9.7 0.00 0.00 0.00 85 1010.9
20260505081204 13 289 1.6 8.0 0.00 0.00 0.00 85 1010.8
20260505080704 13 243 0.0 3.2 0.00 0.00 0.00 84 1010.8
20260505075204 13 252 1.6 3.2 0.00 0.00 0.00 84 1010.6
20260505074704 13 225 0.0 3.2 0.00 0.00 0.00 84 1010.7
20260505074204 13 258 1.6 3.2 0.00 0.00 0.00 83 1010.7
20260505073704 13 159 3.2 8.0 0.00 0.00 0.00 83 1010.6
20260505073204 13 254 3.2 8.0 0.00 0.00 0.00 83 1010.5
20260505072204 13 262 3.2 8.0 0.00 0.00 0.00 82 1010.4
20260505071704 14 250 0.0 8.0 0.00 0.00 0.00 82 1010.2
20260505070705 14 248 1.6 8.0 0.00 0.00 0.00 81 1010.2
20260505070204 14 267 0.0 3.2 0.00 0.00 0.00 81 1010.1
20260505065703 14 262 1.6 8.0 0.00 0.00 0.00 80 1010.1
20260505065204 15 270 0.0 3.2 0.00 0.00 0.00 80 1010.1
20260505064704 15 288 1.6 8.0 0.00 0.00 0.00 80 1010.1
20260505064204 15 100 0.0 1.6 0.00 0.00 0.00 79 1010.0
20260505063704 15 108 0.0 1.6 0.00 0.00 0.00 79 1009.9
20260505062704 15 104 0.0 3.2 0.00 0.00 0.00 78 1009.8
20260505062203 15 233 0.0 3.2 0.00 0.00 0.00 77 1009.8
20260505061705 16 233 0.0 9.7 0.00 0.00 0.00 77 1009.7
20260505061204 16 262 0.0 0.0 0.00 0.00 0.00 76 1009.7
20260505060706 16 262 0.0 0.0 0.00 0.00 0.00 76 1009.6
20260505060204 16 262 0.0 3.2 0.00 0.00 0.00 75 1009.5
20260505055704 16 261 0.0 3.2 0.00 0.00 0.00 75 1009.5
20260505055204 16 268 0.0 3.2 0.00 0.00 0.00 74 1009.5
20260505054704 17 268 0.0 3.2 0.00 0.00 0.00 74 1009.4
20260505054204 17 268 0.0 3.2 0.00 0.00 0.00 73 1009.4
20260505053204 17 268 0.0 3.2 0.00 0.00 0.00 72 1009.2
20260505052704 17 268 1.6 3.2 0.00 0.00 0.00 72 1009.2
20260505052204 17 268 1.6 3.2 0.00 0.00 0.00 71 1009.2
20260505051704 17 267 0.0 3.2 0.00 0.00 0.00 71 1009.1
20260505051203 18 264 1.6 8.0 0.00 0.00 0.00 70 1009.0
20260505050704 18 128 0.0 3.2 0.00 0.00 0.00 70 1009.0
20260505050204 18 97 1.6 3.2 0.00 0.00 0.00 69 1008.9
20260505041704 20 279 0.0 3.2 0.00 0.00 0.00 65 1008.5
20260505041203 20 279 0.0 3.2 0.00 0.00 0.00 64 1008.4
20260505040704 20 279 0.0 3.2 0.00 0.00 0.00 63 1008.3
20260505035704 21 279 0.0 3.2 0.00 0.00 0.00 62 1008.1
20260505034703 21 279 0.0 3.2 0.00 0.00 0.00 62 1008.0
20260505033704 21 279 0.0 0.0 0.00 0.00 0.00 60 1007.8
20260505033204 22 279 0.0 3.2 0.00 0.00 0.00 60 1007.7
20260505032704 22 281 0.0 0.0 0.00 0.00 0.00 59 1007.7
20260505032204 22 281 0.0 3.2 0.00 0.00 0.00 58 1007.6
20260505031703 22 288 0.0 3.2 0.00 0.00 0.00 57 1007.5
20260505031204 22 270 0.0 3.2 0.00 0.00 0.00 57 1007.4
20260505030703 23 269 0.0 0.0 0.00 0.00 0.00 56 1007.4
20260505030204 23 269 0.0 0.0 0.00 0.00 0.00 55 1007.3
20260505025704 23 269 0.0 3.2 0.00 0.00 0.00 54 1007.3
20260505024704 23 275 0.0 3.2 0.00 0.00 0.00 53 1007.2
20260505024204 24 267 0.0 3.2 0.00 0.00 0.00 52 1007.1
20260505023703 24 258 3.2 8.0 0.00 0.00 0.00 51 1007.0
20260505023204 25 260 3.2 9.7 0.00 0.00 0.00 50 1007.0
20260505022204 25 266 0.0 8.0 0.00 0.00 0.00 49 1007.0
20260505021704 25 249 6.4 9.7 0.00 0.00 0.00 48 1007.1
20260505021204 25 278 0.0 3.2 0.00 0.00 0.00 47 1007.1
20260505020704 25 278 3.2 8.0 0.00 0.00 0.00 45 1007.1
20260505020204 25 269 4.8 3.2 0.00 0.00 0.00 44 1007.1
20260505015704 26 273 0.0 3.2 0.00 0.00 0.00 43 1007.1
20260505014704 25 261 0.0 8.0 0.00 0.00 0.00 43 1007.1
20260505014204 25 266 3.2 8.0 0.00 0.00 0.00 42 1007.2
20260505013704 25 324 0.0 0.0 0.00 0.00 0.00 43 1007.2
20260505013204 25 287 0.0 0.0 0.00 0.00 0.00 43 1007.1
20260505011704 25 259 1.6 3.2 0.00 0.00 0.00 43 1007.2
20260505011203 25 126 0.0 1.6 0.00 0.00 0.00 42 1007.2
20260505010204 25 244 0.0 3.2 0.00 0.00 0.00 41 1007.3
20260505005705 25 131 1.6 3.2 0.00 0.00 0.00 41 1007.3
20260505005204 26 128 1.6 8.0 0.00 0.00 0.00 40 1007.3
20260505004704 25 261 3.2 8.0 0.00 0.00 0.00 40 1007.3
20260505004204 25 155 1.6 3.2 0.00 0.00 0.00 40 1007.3
20260505003204 26 134 3.2 8.0 0.00 0.00 0.00 39 1007.4
20260505002204 26 58 0.0 3.2 0.00 0.00 0.00 37 1007.4
20260505001705 26 278 0.0 9.7 0.00 0.00 0.00 38 1007.4
20260505001203 25 262 4.8 9.7 0.00 0.00 0.00 38 1007.5
20260505000204 25 137 0.0 8.0 0.00 0.00 0.00 37 1007.4
20260504235704 26 78 1.6 8.0 0.00 0.00 0.00 37 1007.5
20260504235205 26 218 1.6 8.0 0.00 0.00 0.00 36 1007.6
20260504234704 26 276 1.6 8.0 0.00 0.00 0.00 35 1007.6
20260504234204 26 240 0.0 3.2 0.00 0.00 0.00 36 1007.7
20260504233704 26 154 4.8 8.0 0.00 0.00 0.00 36 1007.7
20260504233204 26 281 3.2 9.7 0.00 0.00 0.00 35 1007.7
20260504232704 26 266 0.0 8.0 0.00 0.00 0.00 36 1007.7
20260504231703 25 276 4.8 8.0 0.00 0.00 0.00 35 1007.8
20260504230704 25 264 8.0 8.0 0.00 0.00 0.00 35 1007.7
20260504230204 25 261 1.6 3.2 0.00 0.00 0.00 35 1007.7
20260504225704 26 270 1.6 8.0 0.00 0.00 0.00 35 1007.8
20260504225205 26 148 0.0 8.0 0.00 0.00 0.00 38 1007.8
20260504224704 25 109 1.6 1.6 0.00 0.00 0.00 38 1007.9
20260504224204 25 104 1.6 8.0 0.00 0.00 0.00 38 1008.0
20260504223704 25 85 0.0 3.2 0.00 0.00 0.00 39 1008.1
20260504222703 25 265 0.0 3.2 0.00 0.00 0.00 38 1008.2
20260504221704 25 291 0.0 8.0 0.00 0.00 0.00 40 1008.4
20260504221204 25 249 1.6 8.0 0.00 0.00 0.00 38 1008.5
20260504220704 25 294 3.2 9.7 0.00 0.00 0.00 40 1008.5
20260504220203 25 266 1.6 16.1 0.00 0.00 0.00 40 1008.5
20260504215704 25 185 1.6 3.2 0.00 0.00 0.00 42 1008.6
20260504215204 25 275 4.8 8.0 0.00 0.00 0.00 42 1008.6
20260504214703 25 129 4.8 8.0 0.00 0.00 0.00 42 1008.6
20260504214204 25 248 1.6 3.2 0.00 0.00 0.00 44 1008.6
20260504213704 25 256 3.2 8.0 0.00 0.00 0.00 43 1008.6
20260504213204 25 261 3.2 12.9 0.00 0.00 0.00 43 1008.7
20260504212705 25 205 1.6 8.0 0.00 0.00 0.00 44 1008.7
20260504212204 25 279 8.0 9.7 0.00 0.00 0.00 43 1008.7
20260504211705 25 262 8.0 9.7 0.00 0.00 0.00 43 1008.7
20260504211203 25 254 1.6 8.0 0.00 0.00 0.00 43 1008.7
20260504210703 25 251 8.0 8.0 0.00 0.00 0.00 40 1008.7
20260504210204 25 260 1.6 9.7 0.00 0.00 0.00 43 1008.7
20260504205704 25 288 3.2 3.2 0.00 0.00 0.00 41 1008.8
20260504205204 25 258 3.2 8.0 0.00 0.00 0.00 40 1008.8
20260504204704 25 252 4.8 8.0 0.00 0.00 0.00 39 1008.8
20260504204204 25 263 3.2 3.2 0.00 0.00 0.00 38 1008.9
20260504203704 25 203 3.2 3.2 0.00 0.00 0.00 41 1008.8
20260504203204 25 283 3.2 8.0 0.00 0.00 0.00 41 1008.8
20260504202704 25 251 0.0 8.0 0.00 0.00 0.00 41 1008.9
20260504202205 26 276 1.6 8.0 0.00 0.00 0.00 41 1008.9
20260504201705 26 266 1.6 3.2 0.00 0.00 0.00 42 1008.9
20260504201204 26 124 0.0 3.2 0.00 0.00 0.00 42 1008.9
20260504200705 25 211 1.6 3.2 0.00 0.00 0.00 44 1008.9
20260504200204 25 244 1.6 3.2 0.00 0.00 0.00 44 1009.0
20260504195703 25 255 4.8 8.0 0.00 0.00 0.00 43 1009.0
20260504195204 25 264 1.6 8.0 0.00 0.00 0.00 43 1008.9
20260504194703 25 106 1.6 8.0 0.00 0.00 0.00 45 1008.9
20260504194204 25 170 1.6 8.0 0.00 0.00 0.00 45 1009.0
20260504193703 24 281 6.4 9.7 0.00 0.00 0.00 43 1008.9
20260504192703 25 259 3.2 8.0 0.00 0.00 0.00 40 1009.1
20260504192203 25 246 1.6 3.2 0.00 0.00 0.00 39 1009.2
20260504191203 25 153 1.6 3.2 0.00 0.00 0.00 42 1009.2
20260504190703 25 122 3.2 8.0 0.00 0.00 0.00 44 1009.2
20260504190204 25 122 1.6 9.7 0.00 0.00 0.00 44 1009.2
20260504185703 24 110 4.8 11.3 0.00 0.00 0.00 45 1009.3
20260504185204 24 266 1.6 8.0 0.00 0.00 0.00 44 1009.3
20260504184704 24 223 3.2 8.0 0.00 0.00 0.00 43 1009.4
20260504184204 24 263 4.8 8.0 0.00 0.00 0.00 43 1009.3
20260504183704 24 260 3.2 8.0 0.00 0.00 0.00 44 1009.3
20260504183204 23 276 0.0 8.0 0.00 0.00 0.00 45 1009.4
20260504182704 23 282 8.0 9.7 0.00 0.00 0.00 44 1009.4
20260504182204 23 123 1.6 8.0 0.00 0.00 0.00 46 1009.3
20260504181704 23 279 1.6 3.2 0.00 0.00 0.00 46 1009.4
20260504181204 23 153 0.0 3.2 0.00 0.00 0.00 48 1009.4
20260504180704 22 267 3.2 8.0 0.00 0.00 0.00 47 1009.4
20260504180204 23 259 4.8 8.0 0.00 0.00 0.00 49 1009.4
20260504175704 23 266 0.0 3.2 0.00 0.00 0.00 49 1009.4
20260504175204 22 134 3.2 9.7 0.00 0.00 0.00 51 1009.5
20260504174704 23 267 1.6 3.2 0.00 0.00 0.00 48 1009.5
20260504174204 22 225 0.0 0.0 0.00 0.00 0.00 52 1009.4
20260504173704 22 257 0.0 3.2 0.00 0.00 0.00 54 1009.5
20260504173203 21 257 3.2 8.0 0.00 0.00 0.00 53 1009.4
20260504172704 21 283 1.6 8.0 0.00 0.00 0.00 54 1009.4
20260504172205 21 270 1.6 3.2 0.00 0.00 0.00 53 1009.5
20260504171204 21 261 4.8 8.0 0.00 0.00 0.00 53 1009.4
20260504170204 21 275 3.2 3.2 0.00 0.00 0.00 56 1009.5
20260504160204 20 263 4.8 8.0 0.00 0.00 0.00 64 1009.2
20260504150704 15 277 0.0 0.0 0.00 0.00 0.00 80 1008.8
20260504150204 15 277 0.0 3.2 0.00 0.00 0.00 80 1008.8
20260504141204 11 304 0.0 0.0 0.00 0.00 0.00 91 1008.6
20260504140704 11 304 0.0 0.0 0.00 0.00 0.00 92 1008.6
20260504130704 10 304 0.0 0.0 0.00 0.00 0.00 91 1008.0
20260504130204 10 304 0.0 0.0 0.00 0.00 0.00 91 1007.9
20260504120204 11 304 0.0 0.0 0.00 0.00 0.00 90 1007.9
20260504110704 11 304 0.0 0.0 0.00 0.00 0.00 87 1007.8
20260504100204 12 304 0.0 0.0 0.00 0.00 0.00 84 1007.7